Content
SEND FEEDBACK

Daily
Averages
Monthly
Summary
United States of America

SOUTH LAKE TAHOE, CALIFORNIA


Home > North America > United States > California
Elevation: 6263 feet     Latitude: 38 53N     Longitude: 119 59W

WEATHER
 
SELECT A DAY
Number of Records: 177,881;   Date Range: 1/1/95 - 11/25/14
 
SHARE

PRINT THIS DATA

[ ← Previous Day ]
WEATHER ALMANAC - SEPTEMBER 13, 2013
[ Next Day → ]
[ °C ]   °F
Weather ElementAverageHighLow
Temperature55.3 °F77 °F (1:53 pm)44.6 °F (7:03 am)
Dewpoint46.5 °F54 °F (11:53 am)41 °F (1:53 pm)
Humidity75.6 %93 % (3:15 am)28 % (1:53 pm)
Barometer30.07 in30.19 in (12:49 am)29.92 in (2:53 pm)
Wind Speed3 mph8.1 mph (1:53 pm)
Weather ElementAverage
Visibility6.7 mi
Wind DirectionE (88.3 °)

Weather ElementTotal
Precipitation---
Heating Degree Days4.2 (Base 65)
Growing Degree Days10.8 (Base 50)
Averaged from 47 records on September 13, 2013
WEATHER CONDITIONS BREAKOUT
WIND DIRECTION BREAKOUT
WEATHER BY HOUR - SEPTEMBER 13, 2013
[ °C ]   °F
Local TimeTemperatureDewpointHumidityBarometerVisibilityWind DirectionWind SpeedGust SpeedPrecipitationEventsConditions
12:49 AM53.6 °F50.0 °F88 %30.19 in1.0 miSouth (190°)3.5 mphMist
12:53 AM53.1 °F50.0 °F89 %30.01 in1.0 miSouth (190°)4.6 mphMist
1:14 AM51.8 °F48.2 °F88 %30.19 in3.0 miSSW (200°)3.5 mphOvercast
1:21 AM51.8 °F48.2 °F88 %30.19 in0.8 miSouth (170°)3.5 mphOvercast
1:45 AM51.8 °F48.2 °F88 %30.19 in1.2 miCalmMostly Cloudy
1:53 AM51.1 °F46.9 °F86 %30.02 in1.2 miSouth (180°)3.5 mphMostly Cloudy
2:02 AM51.8 °F46.4 °F82 %30.19 in0.5 miSouth (190°)3.5 mphFogFog
2:26 AM50.0 °F46.4 °F87 %30.19 in1.5 miSouth (180°)4.6 mphMostly Cloudy
2:35 AM50.0 °F46.4 °F87 %30.19 in0.5 miSouth (190°)5.8 mphFogFog
2:49 AM50.0 °F46.4 °F87 %30.18 in1.5 miSouth (180°)4.6 mphMostly Cloudy
2:53 AM50.0 °F46.0 °F86 %30.01 in0.8 miSouth (190°)4.6 mphMist
3:12 AM50.0 °F46.4 °F87 %30.18 in2.0 miCalmMostly Cloudy
3:15 AM48.2 °F46.4 °F93 %30.18 in5.0 miCalmMostly Cloudy
3:26 AM48.2 °F46.4 °F93 %30.18 in10.0 miCalmScattered Clouds
3:53 AM48.0 °F45.0 °F89 %30.01 in10.0 miCalmClear
4:42 AM46.4 °F44.6 °F93 %30.17 in6.0 miCalmScattered Clouds
4:53 AM46.9 °F43.0 °F86 %30.00 in10.0 miCalmScattered Clouds
5:01 AM46.4 °F42.8 °F87 %30.17 in2.5 miSouth (180°)4.6 mphScattered Clouds
5:07 AM46.4 °F42.8 °F87 %30.17 in1.8 miSouth (190°)4.6 mphMostly Cloudy
5:16 AM46.4 °F42.8 °F87 %30.17 in2.0 miSouth (190°)4.6 mphMostly Cloudy
5:25 AM46.4 °F42.8 °F87 %30.17 in1.2 miSouth (190°)4.6 mphMostly Cloudy
5:34 AM46.4 °F42.8 °F87 %30.17 in3.0 miSSW (200°)4.6 mphMostly Cloudy
5:42 AM46.4 °F42.8 °F87 %30.17 in10.0 miCalmMostly Cloudy
5:53 AM46.9 °F43.0 °F86 %30.01 in10.0 miCalmPartly Cloudy
6:49 AM46.4 °F42.8 °F87 %30.18 in10.0 miSouth (180°)3.5 mphMostly Cloudy
6:53 AM45.0 °F42.1 °F90 %30.03 in10.0 miSouth (180°)3.5 mphMostly Cloudy
7:03 AM44.6 °F42.8 °F93 %30.18 in10.0 miSouth (190°)5.8 mphScattered Clouds
7:12 AM44.6 °F42.8 °F93 %30.18 in10.0 miSouth (190°)4.6 mphScattered Clouds
7:53 AM48.9 °F45.0 °F86 %30.06 in10.0 miSSW (200°)3.5 mphOvercast
8:53 AM55.0 °F48.0 °F77 %30.04 in10.0 miSouth (180°)3.5 mphPartly Cloudy
9:53 AM63.0 °F52.0 °F67 %30.02 in10.0 miVariable4.6 mphPartly Cloudy
10:53 AM64.9 °F52.0 °F63 %30.01 in10.0 miNE (40°)3.5 mphClear
11:53 AM68.0 °F54.0 °F61 %29.99 in10.0 miCalmOvercast
12:53 PM73.0 °F48.9 °F42 %29.96 in10.0 miNE (50°)6.9 mphScattered Clouds
1:53 PM77.0 °F41.0 °F28 %29.93 in10.0 miNNE (20°)8.1 mphClear
2:53 PM75.9 °F42.1 °F30 %29.92 in10.0 miVariable5.8 mphClear
3:26 PM71.6 °F46.4 °F41 %30.09 in10.0 miNNE (30°)6.9 mphThunderstormClear
3:41 PM69.8 °F51.8 °F53 %30.09 in10.0 miNE (40°)5.8 mphClear
3:53 PM72.0 °F51.1 °F48 %29.93 in10.0 miNNE (20°)3.5 mphClear
4:53 PM72.0 °F48.0 °F43 %29.93 in10.0 miNNE (20°)4.6 mphScattered Clouds
5:53 PM69.1 °F50.0 °F51 %29.93 in10.0 miCalm0.00 inMostly Cloudy
6:53 PM68.0 °F50.0 °F52 %29.95 in10.0 miCalmPartly Cloudy
7:53 PM64.9 °F48.9 °F56 %29.95 in10.0 miCalmClear
8:53 PM62.1 °F48.9 °F62 %29.95 in10.0 miCalmClear
9:53 PM57.9 °F48.9 °F72 %29.94 in10.0 miCalmClear
10:53 PM55.0 °F48.0 °F77 %29.95 in10.0 miCalmClear
11:53 PM53.1 °F46.0 °F77 %29.94 in10.0 miCalmClear
Hourly data recorded from KTVL, located miles away from South Lake Tahoe, California







STORIES FROM OUR PARTNERS